Date String (YYYY-MM-DD hh:mm:ss) UTC,Instrument flags,absolute air pressure of the measurement (hPa),sample flow rate (lpm),inlet stack bypass flow (lpm),air temperature of the measurement (°C),ambient temperature measured by the external sensor (°C),aerosol sample conditioner tube jacket temperature (°C),OPC LED temperature (°C),internal box temperature (°C),relative humidity of the measurement (%),span deviation,mass concentration of particles derived from Lorenz-Mie calculation of OPC scattering (μg/m³),mass concentration of particles derived from Lorenz-Mie calculation of OPC scattering (μg/m³),mass concentration of particles derived from Lorenz-Mie calculation of OPC scattering (μg/m³)
DateTimeUTC,F1_M11,P_M11,Q1_M11,Q2_M11,T1_M11,T2_M11,T3_M11,T4_M11,T5_M11,U1_M11,ZSPAN_M11,X2_M11,X0_M11,X1_M11
2023-10-12 07:00:00,SystemResetWarning,0814.5,5.00,000.00,029.2,027.7,000.0,037.7,030.8,20.9,0000.0,0000.79,0001.22,0000.61
2023-10-12 07:01:00,SystemResetWarning,0814.4,5.00,000.00,029.2,027.7,000.0,037.7,030.8,21.0,0000.0,0000.76,0001.18,0000.59
2023-10-12 07:02:00,SystemResetWarning,0814.4,4.99,000.00,029.2,027.7,000.0,037.7,030.8,21.0,0000.0,0000.78,0001.20,0000.59
2023-10-12 07:03:00,SystemResetWarning,0814.4,5.00,000.00,029.2,027.7,000.0,037.7,030.8,21.0,0000.0,0000.78,0001.22,0000.59
2023-10-12 07:04:00,SystemResetWarning,0814.4,5.00,000.00,029.2,027.7,000.0,037.7,030.8,21.0,0000.0,0000.77,0001.17,0000.60
2023-10-12 07:05:00,SystemResetWarning,0814.4,5.00,000.00,029.2,027.6,000.0,037.7,030.8,20.9,0000.0,0000.78,0001.17,0000.61
2023-10-12 07:06:00,SystemResetWarning,0814.4,5.00,000.00,029.2,027.6,000.0,037.7,030.8,20.8,0000.0,0000.84,0001.31,0000.63
2023-10-12 07:07:00,SystemResetWarning,0814.3,5.00,000.00,029.2,027.6,000.0,037.7,030.8,20.9,0000.0,0000.86,0001.33,0000.65
2023-10-12 07:08:00,SystemResetWarning,0814.4,5.00,000.00,029.2,027.7,000.0,037.7,030.8,20.9,0000.0,0000.89,0001.50,0000.66
2023-10-12 07:09:00,SystemResetWarning,0814.4,5.00,000.00,029.2,027.7,000.0,037.7,030.8,20.9,0000.0,0000.92,0001.64,0000.68
2023-10-12 07:10:00,SystemResetWarning,0814.4,5.01,000.00,029.2,027.7,000.0,037.7,030.8,20.9,0000.0,0000.97,0001.80,0000.69
2023-10-12 07:11:00,SystemResetWarning,0814.4,5.01,000.00,029.2,027.7,000.0,037.7,030.8,20.9,0000.0,0001.02,0001.85,0000.71
2023-10-12 07:12:00,SystemResetWarning,0814.5,5.00,000.00,029.2,027.7,000.0,037.7,030.8,20.8,0000.0,0001.07,0001.95,0000.74
2023-10-12 07:13:00,SystemResetWarning,0814.5,5.00,000.00,029.2,027.7,000.0,037.7,030.8,20.8,0000.0,0001.12,0002.07,0000.75
2023-10-12 07:14:00,SystemResetWarning,0814.6,5.00,000.00,029.2,027.7,000.0,037.7,030.8,20.8,0000.0,0001.15,0002.10,0000.77
2023-10-12 07:15:00,SystemResetWarning,0814.5,5.00,000.00,029.2,027.7,000.0,037.7,030.8,20.8,0000.0,0001.24,0002.29,0000.78
2023-10-12 07:16:00,SystemResetWarning,0814.6,5.00,000.00,029.2,027.7,000.0,037.7,030.8,20.8,0000.0,0001.32,0002.44,0000.80
2023-10-12 07:17:00,SystemResetWarning,0814.6,5.00,000.00,029.2,027.7,000.0,037.7,030.8,20.8,0000.0,0001.28,0003.23,0000.81
2023-10-12 07:18:00,SystemResetWarning,0814.6,5.00,000.00,029.2,027.7,000.0,037.7,030.8,20.8,0000.0,0001.29,0003.70,0000.82
2023-10-12 07:19:00,SystemResetWarning,0814.6,5.00,000.00,029.2,027.7,000.0,037.7,030.8,20.8,0000.0,0001.30,0003.64,0000.82
2023-10-12 07:20:00,SystemResetWarning,0814.6,5.00,000.00,029.2,027.7,000.0,037.7,030.8,20.8,0000.0,0001.34,0003.66,0000.84
2023-10-12 07:21:00,SystemResetWarning,0814.6,5.01,000.00,029.2,027.7,000.0,037.7,030.8,20.8,0000.0,0001.36,0003.72,0000.86
2023-10-12 07:22:00,SystemResetWarning,0814.6,5.01,000.00,029.2,027.7,000.0,037.7,030.8,20.7,0000.0,0001.43,0005.66,0000.87
2023-10-12 07:23:00,SystemResetWarning,0814.6,5.00,000.00,029.2,027.7,000.0,037.7,030.8,20.7,0000.0,0001.48,0006.39,0000.88
2023-10-12 07:24:00,SystemResetWarning,0814.6,5.00,000.00,029.2,027.7,000.0,037.7,030.8,20.7,0000.0,0001.48,0006.77,0000.88
2023-10-12 07:25:00,SystemResetWarning,0814.6,5.00,000.00,029.2,027.7,000.0,037.7,030.9,20.8,0000.0,0001.47,0006.96,0000.89
2023-10-12 07:26:00,SystemResetWarning,0814.7,5.00,000.00,029.2,027.7,000.0,037.7,030.8,20.8,0000.0,0001.41,0006.82,0000.89
2023-10-12 07:27:00,SystemResetWarning,0814.6,5.00,000.00,029.2,027.7,000.0,037.7,030.9,20.8,0000.0,0001.35,0007.24,0000.89
2023-10-12 07:28:00,SystemResetWarning,0814.7,5.00,000.00,029.2,027.7,000.0,037.7,030.9,20.8,0000.0,0001.35,0006.86,0000.89
2023-10-12 07:29:00,SystemResetWarning,0814.6,4.99,000.00,029.2,027.8,000.0,037.7,030.9,20.8,0000.0,0001.37,0006.28,0000.88
2023-10-12 07:30:00,SystemResetWarning,0814.7,5.00,000.00,029.3,027.8,000.0,037.7,030.9,20.8,0000.0,0001.42,0006.41,0000.88
2023-10-12 07:31:00,SystemResetWarning,0814.6,5.00,000.00,029.3,027.8,000.0,037.7,030.9,20.8,0000.0,0001.43,0006.47,0000.87
2023-10-12 07:32:00,SystemResetWarning,0814.6,5.00,000.00,029.3,027.8,000.0,037.7,030.9,20.9,0000.0,0001.39,0006.30,0000.86
2023-10-12 07:33:00,SystemResetWarning,0814.6,5.00,000.00,029.3,027.8,000.0,037.7,030.9,20.9,0000.0,0001.32,0004.47,0000.86
2023-10-12 07:34:00,SystemResetWarning,0814.5,5.00,000.00,029.3,027.8,000.0,037.7,030.9,21.1,0000.0,0001.28,0004.21,0000.86
2023-10-12 07:35:00,SystemResetWarning,0814.5,5.00,000.00,029.3,027.8,000.0,037.7,030.9,21.1,0000.0,0001.28,0004.01,0000.88
2023-10-12 07:36:00,SystemResetWarning,0814.5,5.00,000.00,029.3,027.8,000.0,037.7,030.9,21.1,0000.0,0001.31,0003.88,0000.88
2023-10-12 07:37:00,SystemResetWarning,0814.4,5.00,000.00,029.3,027.8,000.0,037.7,030.9,21.1,0000.0,0001.34,0004.04,0000.88
2023-10-12 07:38:00,SystemResetWarning,0814.4,5.00,000.00,029.3,027.8,000.0,037.7,030.9,21.1,0000.0,0001.36,0003.46,0000.88
2023-10-12 07:39:00,SystemResetWarning,0814.5,5.00,000.00,029.3,027.8,000.0,037.7,030.9,21.2,0000.0,0001.40,0003.27,0000.90
2023-10-12 07:40:00,SystemResetWarning,0814.5,4.99,000.00,029.3,027.8,000.0,037.7,030.9,21.3,0000.0,0001.41,0003.25,0000.91
2023-10-12 07:41:00,SystemResetWarning,0814.5,4.99,000.00,029.3,027.8,000.0,037.7,030.9,21.3,0000.0,0001.36,0003.16,0000.92
2023-10-12 07:42:00,SystemResetWarning,0814.5,5.01,000.00,029.3,027.8,000.0,037.7,030.9,21.4,0000.0,0001.33,0003.02,0000.92
2023-10-12 07:43:00,SystemResetWarning,0814.5,5.01,000.00,029.3,027.8,000.0,037.7,030.9,21.4,0000.0,0001.34,0003.08,0000.92
2023-10-12 07:44:00,SystemResetWarning,0814.4,5.01,000.00,029.3,027.8,000.0,037.7,031.0,21.5,0000.0,0001.36,0003.19,0000.90
2023-10-12 07:45:00,SystemResetWarning,0814.4,5.00,000.00,029.3,027.8,000.0,037.7,031.0,21.6,0000.0,0001.39,0002.82,0000.90
2023-10-12 07:46:00,SystemResetWarning,0814.5,5.00,000.00,029.3,027.8,000.0,037.7,030.9,21.6,0000.0,0001.36,0002.58,0000.89
2023-10-12 07:47:00,SystemResetWarning,0814.5,5.00,000.00,029.3,027.8,000.0,037.7,030.9,21.6,0000.0,0001.32,0002.49,0000.89
2023-10-12 07:48:00,SystemResetWarning,0814.5,5.00,000.00,029.3,027.8,000.0,037.7,030.9,21.6,0000.0,0001.31,0002.37,0000.89
2023-10-12 07:49:00,SystemResetWarning,0814.5,5.00,000.00,029.3,027.8,000.0,037.7,031.0,21.6,0000.0,0001.29,0002.36,0000.88
2023-10-12 07:50:00,SystemResetWarning,0814.5,5.00,000.00,029.3,027.8,000.0,037.7,031.0,21.6,0000.0,0001.26,0002.39,0000.88
2023-10-12 07:51:00,SystemResetWarning,0814.5,5.00,000.00,029.3,027.8,000.0,037.7,030.9,21.7,0000.0,0001.25,0002.35,0000.88
2023-10-12 07:52:00,SystemResetWarning,0814.6,5.00,000.00,029.3,027.8,000.0,037.7,030.9,21.7,0000.0,0001.26,0002.28,0000.88
2023-10-12 07:53:00,SystemResetWarning,0814.6,5.00,000.00,029.3,027.8,000.0,037.8,031.0,21.8,0000.0,0001.27,0002.30,0000.89
2023-10-12 07:54:00,SystemResetWarning,0814.6,5.00,000.00,029.3,027.8,000.0,037.8,031.0,21.8,0000.0,0001.27,0002.24,0000.89
2023-10-12 07:55:00,SystemResetWarning,0814.6,5.00,000.00,029.3,027.8,000.0,037.8,030.9,21.8,0000.0,0001.25,0002.13,0000.91
2023-10-12 07:56:00,SystemResetWarning,0814.6,5.00,000.00,029.3,027.8,000.0,037.8,031.0,21.8,0000.0,0001.21,0001.96,0000.92
2023-10-12 07:57:00,SystemResetWarning,0814.6,5.00,000.00,029.3,027.8,000.0,037.8,031.0,21.9,0000.0,0001.16,0001.84,0000.92
2023-10-12 07:58:00,SystemResetWarning,0814.6,5.00,000.00,029.3,027.9,000.0,037.8,031.0,21.9,0000.0,0001.18,0001.92,0000.93
2023-10-12 07:59:00,SystemResetWarning,0814.7,5.01,000.00,029.3,027.9,000.0,037.8,031.0,22.0,0000.0,0001.20,0001.89,0000.94
